Find Shiyan 27-06

NORAD ID: 63604 Int'l Des: 2025-078 Owner: CAST Country: CN operational
LEOCIRCULARRETROGRADESSO

現在のビュー

3D地球を読み込み中...

About Shiyan 27-06

Shiyan 27-06 (NORAD 63604) is a satellite launched Apr 18, 2025 by CAST of CN. It operates in LEO, CIRCULAR, RETROGRADE, SSO orbit with a mass of 300.00 kg.

次回通過

Passes for default location (London). Set your location on the main map for personalized predictions.

高度履歴

Loading altitude history...

軌道要素

1 63604U 25078F 26194.64873319 -.00000023 00000-0 29668-4 0 9995
2 63604 99.6905 201.4656 0001099 81.3406 278.7857 13.57243956 61123
Epoch: Jul 13, 2026 • Age: 10 hours

現在のステータス

高度 1055.4 km
遠地点 / 近地点 N/A
速度 7.32 km/s
衛星直下点 -25.00°S, 64.05°E
打ち上げ日 Apr 18, 2025
運用期間 1.2 years
タイプ other

技術仕様

分類 Payload
質量 300.00 kg
乾燥質量 300.00 kg
総質量 300.00 kg
長さ 0.30 m
直径 3.00 m
スパン 10.00 m
形状 Box+pan
製造者 CAST
バスタイプ SW27
フェーズステータス In Orbit
所有者/国 CAST/CN

Most Searched